User: anonymous   Login
Location: Unspecified
(0.0000°N, 0.0000°E)
Time: 19:45:00
(UTC+02:00)
Language:

ARIANE 5 R/B - Orbit

View from above orbital plane
View from above orbital plane
View from above satellite
View from above satellite

Ground track
Ground track

The orbit data is extracted from the following two-line orbital elements,

1 28787U 05028B   16182.18619462 -.00000185  00000-0 -29223-4 0  9990
2 28787   6.6600 172.5257 7178584 294.3116 247.3273  2.26569424 90138
Epoch (UTC): 30 June 2016 04:28:07
Eccentricity: 0.7178584
inclination: 6.6600°
perigee height: 530 km
apogee height: 35686 km
right ascension of ascending node: 172.5257°
argument of perigee: 294.3116°
revolutions per day: 2.26569424
mean anomaly at epoch: 247.3273°
orbit number at epoch: 9013

The dashed part of the orbit path shows where the satellite is in the earth's shadow,  

DLR